Wind_Speed
9 9 9 9 10 10 9 10 10 10 10 10 11 11 11 10 10 10 11 11 11 11 11 11 11 12 11 11 12 12 12 11 11 10 10 10 9 10 9 10 10 10 10 10
10 10 11 11 11 11 10 10 11 11 11 11 11 11 11 10 11 11 11 11 11 11 11 11 11 12 12 12 12 11 11 11 11 11 11 10 10 9 9 9 10 10 10 10
10 10 11 11 11 12 12 11 12 12 12 12 12 12 12 12 12 12 12 12 12 12 12 12 12 12 12 12 12 12 11 11 12 12 12 11 10 10 10 9 10 10 10 9
11 10 11 11 12 12 12 12 12 12 12 13 12 12 12 12 12 12 12 12 13 13 12 12 12 12 12 12 12 13 12 12 12 12 12 11 11 10 10 10 10 9 8 8
12 11 12 12 12 13 13 13 13 13 13 14 13 13 12 13 13 13 13 12 12 13 12 12 12 12 12 12 12 12 12 12 12 12 12 11 11 10 10 9 8 8 8 8
13 13 13 13 13 14 13 13 14 14 15 15 14 14 13 13 13 13 13 13 13 13 13 13 13 13 12 12 12 13 12 12 12 12 12 12 11 11 10 10 9 8 8 7
13 14 14 14 14 14 14 14 14 15 15 16 15 15 14 14 13 13 13 13 13 14 14 13 13 13 13 13 13 13 13 13 13 12 12 11 11 11 11 10 10 9 8 8
14 14 14 14 14 14 14 14 14 15 16 16 16 16 15 14 15 14 14 14 14 14 14 14 14 14 14 14 14 14 13 13 13 12 12 11 11 11 11 10 10 10 9 8
15 15 15 14 15 15 15 15 15 15 16 16 17 16 16 15 15 15 15 15 15 14 15 15 14 14 14 14 14 14 14 14 13 13 13 13 13 12 11 11 10 9 9 9
15 15 16 15 15 16 16 16 16 16 16 16 17 16 16 16 16 16 16 15 15 15 15 15 15 15 15 14 14 15 15 15 14 14 14 13 13 12 11 11 10 10 10 9
15 15 16 16 16 16 16 16 16 17 17 17 17 17 16 16 16 16 16 16 16 16 16 16 16 15 14 15 15 15 15 15 15 14 14 13 13 13 12 12 11 11 10 10
15 15 16 16 17 17 17 17 17 18 18 18 18 18 17 17 16 16 16 16 16 16 16 16 15 15 15 15 15 15 15 14 15 15 14 14 14 14 14 13 12 12 12 12
16 16 16 16 17 17 17 17 18 18 19 19 18 18 17 17 17 16 16 16 16 17 17 16 16 16 16 16 16 16 16 16 15 15 15 15 15 14 14 14 14 13 13 12
18 18 17 17 18 18 18 18 19 19 19 19 19 18 17 17 16 16 17 17 17 17 17 17 17 17 17 18 17 17 17 17 16 16 15 15 15 15 15 15 15 15 14 14
19 18 19 19 19 20 20 19 20 20 20 20 19 19 18 18 17 17 18 18 18 18 18 18 18 18 17 17 17 17 17 17 17 17 16 17 16 16 17 16 16 16 16 16
20 19 20 20 21 22 21 20 20 20 21 21 21 20 19 19 18 18 18 19 20 20 20 19 19 19 18 17 17 18 18 18 19 18 18 18 17 17 17 17 17 17 16 16
21 21 22 22 22 23 22 21 21 21 21 21 22 21 21 21 20 20 19 19 19 20 20 20 19 19 19 19 18 18 19 19 20 20 20 19 19 18 18 18 18 18 17 17
22 22 23 23 22 23 22 21 21 22 21 22 22 21 21 21 21 21 21 21 20 20 20 20 20 20 20 21 21 20 20 20 20 21 21 21 20 20 20 19 19 19 18 18
23 24 24 25 25 24 23 23 23 23 23 22 22 22 22 22 22 22 22 22 22 21 21 21 21 21 21 22 22 22 21 21 21 22 22 21 21 21 21 20 20 20 20 20
25 25 26 26 27 26 24 24 24 24 24 23 23 23 23 23 22 22 23 23 23 23 23 23 22 22 22 23 23 22 22 22 22 22 22 22 22 22 22 22 22 21 21 21
25 26 26 26 28 27 25 24 24 25 24 24 24 24 24 24 23 23 24 24 24 24 24 24 23 23 23 23 23 23 24 23 23 23 23 23 23 23 23 23 23 22 22 22
26 26 27 27 28 27 27 26 26 26 26 26 26 26 26 25 25 25 25 24 24 24 25 25 25 24 24 24 24 24 24 24 24 24 24 23 23 24 24 24 23 23 23 23
28 28 28 29 29 29 28 28 27 27 27 27 26 27 27 27 26 26 27 26 25 25 25 25 26 25 25 25 25 25 25 25 25 25 25 24 25 25 25 25 24 24 24 24
29 29 29 29 29 29 29 29 28 28 28 27 28 28 28 27 27 27 27 28 27 27 26 26 26 26 26 26 26 26 26 27 26 26 26 26 26 26 26 26 26 26 25 24
30 30 30 30 30 31 30 30 30 29 28 28 28 28 28 28 28 28 27 27 28 28 27 27 27 27 27 27 27 27 28 28 28 27 27 27 27 27 28 28 27 27 27 26
30 30 30 30 30 32 31 31 30 29 29 29 29 29 29 29 29 29 28 28 28 28 28 28 28 28 28 28 28 28 29 29 29 29 29 28 29 29 29 29 28 28 29 29
Wind_Direction
250 250 251 253 254 257 254 253 257 257 260 265 268 269 269 267 264 262 263 267 267 268 266 268 268 269 267 265 262 263 264 266 268 272 274 274 271 274 272 270 272 273 272 270
252 250 252 255 258 259 257 257 260 262 263 267 268 268 269 268 267 266 266 266 266 267 268 268 268 267 267 266 263 263 263 264 266 270 271 271 271 272 274 274 275 274 274 272
254 254 252 255 258 258 257 258 260 263 266 270 270 269 269 267 268 267 266 266 265 266 268 267 265 265 266 268 265 263 264 265 266 268 269 268 269 271 271 274 275 278 274 272
253 256 255 257 259 258 259 259 262 264 266 269 271 271 269 267 267 267 266 265 264 263 264 263 263 264 265 266 265 264 265 265 266 268 268 265 266 270 271 275 278 275 274 272
254 253 255 257 257 258 259 261 263 265 267 269 270 271 268 267 265 264 265 265 264 261 262 262 262 263 264 264 264 264 265 267 267 268 267 262 262 265 271 276 278 277 276 270
256 255 255 256 258 259 262 262 264 266 268 270 269 268 267 266 266 264 263 263 263 261 260 262 264 265 264 265 266 265 265 265 266 267 266 261 260 262 268 270 273 275 275 271
257 256 257 259 261 261 262 264 267 268 269 270 269 266 265 263 263 263 262 262 262 260 261 262 264 265 265 264 265 265 264 264 265 265 264 261 262 263 267 269 271 272 273 267
259 259 259 260 261 261 261 263 264 266 268 269 268 267 265 263 262 263 262 262 260 260 259 260 262 264 264 263 263 264 263 263 263 263 263 259 261 264 267 268 268 270 270 270
259 260 260 260 261 261 262 262 264 265 266 267 268 268 266 264 263 262 262 261 259 259 257 257 259 261 262 262 260 259 258 260 262 262 261 261 261 264 265 266 264 266 268 272
258 260 262 262 261 260 261 262 263 264 265 267 268 268 267 265 263 264 263 261 259 258 257 256 258 260 259 260 261 257 255 258 260 262 261 260 259 262 264 265 265 263 264 267
257 261 263 262 262 262 261 261 262 263 264 265 267 269 267 266 265 264 263 260 257 256 256 257 256 257 257 259 260 260 256 258 259 261 260 260 258 259 263 264 263 262 262 262
257 260 263 264 263 262 262 262 262 264 264 264 265 267 269 268 264 262 262 258 255 254 255 256 256 255 255 257 259 258 258 258 260 260 258 258 260 260 261 261 261 259 261 263
258 260 262 263 264 265 265 264 264 263 263 264 264 266 267 266 265 262 260 256 254 252 254 256 256 255 254 256 258 258 256 257 259 259 257 257 257 258 260 260 260 261 263 264
258 259 260 263 265 266 265 264 263 263 263 263 263 262 262 263 264 261 259 258 257 256 256 257 259 257 256 256 256 256 256 257 258 258 256 255 257 258 259 260 261 262 262 263
259 260 261 263 265 265 264 264 263 263 263 262 261 261 259 260 263 263 261 259 258 259 259 258 257 256 256 256 256 256 256 256 257 256 255 255 257 260 259 260 261 263 263 264
260 261 263 264 265 265 263 264 264 264 264 263 261 261 261 261 262 263 262 260 259 258 258 257 257 257 257 256 257 257 257 255 255 255 254 255 256 260 260 259 261 263 263 264
260 263 265 267 266 264 262 262 264 265 265 265 263 263 262 262 262 263 263 262 261 260 257 256 257 257 256 255 257 258 258 256 255 255 254 255 256 258 260 260 261 263 262 263
262 262 265 267 266 264 264 262 263 265 266 267 266 263 262 262 262 263 263 262 261 261 259 257 258 258 258 256 256 257 257 257 256 255 255 255 256 256 259 262 262 262 263 263
260 262 264 265 265 266 266 264 264 265 265 267 267 264 262 262 261 261 261 262 261 261 261 260 259 259 258 258 257 257 257 257 257 255 255 256 257 258 258 261 261 262 262 263
260 262 264 266 267 268 268 268 266 266 266 266 266 264 261 262 261 260 260 261 261 261 261 260 259 260 260 259 258 257 257 257 258 256 255 256 257 259 259 260 261 261 261 262
261 262 264 267 269 269 269 268 267 267 267 267 265 263 261 262 262 261 261 261 261 263 261 259 259 260 260 259 258 257 257 257 256 256 256 256 258 259 260 260 261 260 260 260
263 263 264 267 268 269 269 268 267 268 267 265 264 263 262 262 262 262 262 262 262 263 262 260 259 259 259 258 258 257 258 258 256 256 257 257 258 259 260 261 261 260 259 260
263 263 264 265 267 268 268 267 267 268 267 266 265 264 263 263 262 262 262 263 263 262 262 260 259 258 258 258 257 257 258 260 259 257 257 256 257 259 261 261 261 261 260 260
262 263 264 264 265 266 266 267 266 267 267 266 265 265 264 263 262 262 262 263 263 262 262 261 259 257 258 258 258 258 258 259 261 260 259 258 258 259 260 260 261 260 260 261
264 265 266 266 267 268 266 266 266 267 266 266 265 264 264 262 262 262 263 263 263 263 262 261 260 258 258 259 259 258 259 260 260 260 261 261 260 261 260 260 261 260 260 261
263 265 266 267 267 269 268 266 265 265 266 267 267 265 264 263 262 262 263 264 264 262 261 260 259 259 258 258 258 258 259 260 260 261 261 262 261 262 262 261 261 261 261 261
Height
5866 5868 5868 5869 5869 5870 5870 5871 5871 5872 5872 5872 5873 5873 5873 5873 5873 5873 5874 5874 5874 5874 5874 5874 5874 5874 5874 5874 5874 5874 5874 5874 5874 5874 5874 5874 5874 5873 5873 5872 5872 5871 5871 5871
5865 5865 5866 5866 5866 5867 5868 5869 5869 5869 5869 5870 5870 5870 5870 5871 5871 5871 5871 5871 5871 5871 5871 5871 5871 5871 5871 5871 5872 5872 5872 5872 5872 5872 5872 5872 5871 5871 5871 5870 5870 5869 5869 5868
5861 5863 5862 5863 5863 5864 5865 5866 5866 5866 5866 5867 5868 5868 5868 5868 5868 5868 5868 5868 5868 5868 5869 5869 5869 5869 5869 5869 5869 5869 5869 5870 5870 5869 5869 5869 5869 5869 5868 5868 5867 5867 5866 5866
5858 5859 5860 5860 5860 5861 5862 5862 5863 5863 5864 5864 5865 5865 5865 5865 5865 5865 5865 5865 5865 5865 5866 5866 5866 5866 5866 5866 5866 5867 5867 5867 5867 5867 5866 5866 5866 5866 5866 5866 5865 5864 5864 5863
5855 5856 5857 5857 5858 5858 5859 5859 5859 5860 5860 5861 5861 5862 5863 5862 5862 5862 5862 5861 5862 5862 5862 5863 5863 5863 5863 5863 5864 5864 5864 5864 5864 5864 5863 5863 5864 5864 5863 5863 5863 5862 5862 5861
5852 5853 5853 5854 5854 5854 5855 5856 5856 5856 5856 5857 5858 5858 5859 5858 5858 5858 5858 5858 5858 5859 5859 5859 5860 5860 5860 5860 5861 5861 5861 5861 5861 5861 5861 5861 5861 5861 5861 5861 5860 5860 5859 5859
5848 5849 5849 5850 5850 5851 5852 5853 5853 5853 5853 5854 5854 5854 5855 5855 5855 5855 5855 5855 5855 5855 5856 5856 5856 5857 5857 5857 5858 5858 5858 5858 5858 5858 5858 5858 5858 5859 5859 5858 5858 5858 5857 5857
5845 5846 5846 5846 5847 5847 5848 5849 5850 5850 5850 5850 5849 5849 5851 5850 5850 5851 5851 5851 5851 5851 5852 5852 5853 5853 5853 5854 5854 5854 5855 5855 5855 5855 5855 5855 5856 5856 5856 5856 5856 5856 5855 5855
5840 5841 5842 5842 5842 5843 5843 5844 5845 5845 5845 5845 5845 5845 5846 5846 5846 5846 5846 5846 5847 5847 5848 5848 5849 5849 5849 5850 5850 5851 5851 5852 5852 5852 5852 5853 5853 5853 5853 5853 5853 5853 5853 5853
5836 5837 5837 5837 5838 5838 5839 5839 5840 5840 5840 5841 5841 5841 5842 5841 5841 5841 5841 5842 5842 5843 5843 5844 5844 5845 5845 5846 5846 5847 5848 5848 5849 5849 5849 5850 5850 5850 5850 5850 5850 5850 5850 5850
5831 5833 5833 5833 5833 5834 5835 5835 5835 5835 5836 5836 5837 5839 5837 5836 5836 5837 5837 5837 5838 5838 5839 5840 5840 5841 5841 5842 5843 5843 5844 5844 5845 5845 5846 5846 5847 5847 5847 5847 5847 5847 5847 5847
5826 5828 5828 5828 5829 5829 5829 5829 5830 5831 5831 5831 5831 5835 5832 5831 5831 5831 5832 5832 5833 5834 5834 5835 5836 5836 5837 5838 5838 5839 5840 5840 5841 5841 5842 5843 5843 5844 5844 5844 5844 5844 5844 5844
5822 5823 5823 5824 5825 5825 5824 5824 5824 5825 5825 5825 5826 5829 5826 5826 5826 5826 5827 5827 5828 5829 5830 5830 5831 5832 5833 5833 5834 5835 5835 5836 5837 5837 5838 5839 5839 5840 5840 5840 5840 5841 5841 5841
5816 5817 5819 5820 5819 5818 5818 5819 5819 5819 5819 5820 5821 5822 5821 5821 5821 5821 5822 5822 5823 5824 5824 5825 5826 5827 5828 5828 5829 5830 5831 5832 5832 5833 5834 5834 5835 5835 5836 5836 5836 5837 5837 5837
5811 5812 5812 5812 5812 5812 5812 5813 5813 5813 5813 5814 5815 5815 5816 5816 5816 5816 5816 5817 5818 5818 5819 5820 5821 5822 5822 5823 5824 5825 5825 5827 5827 5828 5829 5830 5830 5831 5831 5832 5832 5833 5833 5833
5804 5806 5806 5806 5806 5806 5806 5807 5807 5807 5807 5808 5808 5809 5810 5809 5810 5810 5810 5811 5812 5812 5813 5814 5815 5816 5817 5818 5818 5819 5820 5821 5822 5823 5824 5825 5826 5826 5827 5827 5828 5828 5828 5828
5799 5799 5800 5800 5799 5799 5800 5801 5801 5801 5801 5802 5802 5804 5803 5803 5803 5804 5804 5805 5805 5806 5807 5808 5809 5810 5811 5812 5813 5814 5815 5816 5817 5818 5819 5820 5820 5821 5822 5822 5823 5823 5823 5823
5793 5793 5793 5793 5793 5792 5796 5795 5794 5794 5795 5795 5795 5796 5796 5796 5797 5797 5798 5798 5799 5799 5800 5801 5802 5803 5804 5806 5807 5808 5809 5810 5811 5812 5813 5814 5815 5816 5816 5817 5817 5818 5818 5818
5786 5786 5786 5786 5785 5785 5788 5788 5787 5787 5788 5788 5788 5789 5789 5789 5789 5790 5791 5791 5792 5793 5794 5795 5795 5796 5798 5799 5800 5801 5802 5803 5804 5806 5807 5808 5809 5810 5811 5811 5812 5812 5813 5813
5779 5779 5779 5778 5777 5778 5781 5781 5779 5780 5781 5782 5781 5781 5782 5782 5783 5784 5784 5784 5785 5786 5786 5787 5788 5789 5791 5792 5793 5794 5795 5796 5798 5799 5800 5801 5803 5803 5804 5805 5805 5806 5807 5807
5771 5771 5771 5770 5769 5771 5773 5773 5772 5774 5775 5774 5773 5774 5774 5775 5776 5777 5777 5777 5778 5778 5779 5780 5781 5782 5784 5785 5786 5787 5788 5789 5791 5792 5793 5795 5796 5797 5797 5798 5799 5799 5800 5800
5763 5763 5763 5763 5762 5765 5765 5765 5765 5766 5765 5765 5765 5766 5767 5767 5768 5768 5769 5769 5770 5771 5771 5772 5773 5775 5776 5777 5779 5780 5781 5782 5784 5785 5786 5788 5789 5790 5790 5791 5792 5792 5793 5794
5755 5756 5755 5756 5757 5757 5756 5756 5756 5756 5756 5756 5757 5758 5758 5759 5760 5760 5761 5761 5762 5763 5763 5764 5765 5767 5768 5770 5771 5773 5774 5775 5776 5778 5779 5780 5781 5782 5783 5784 5784 5785 5786 5786
5747 5746 5746 5746 5747 5747 5747 5746 5747 5746 5747 5747 5748 5749 5750 5750 5751 5752 5752 5753 5754 5754 5755 5756 5757 5759 5760 5761 5763 5764 5766 5767 5768 5769 5771 5772 5773 5774 5775 5776 5777 5778 5778 5779
5738 5737 5737 5737 5738 5738 5738 5737 5738 5738 5738 5739 5740 5740 5740 5741 5742 5743 5744 5744 5745 5746 5747 5748 5749 5750 5752 5753 5754 5756 5757 5758 5760 5761 5762 5764 5765 5766 5767 5768 5769 5769 5770 5771
5728 5728 5729 5729 5729 5728 5729 5729 5729 5730 5730 5731 5731 5731 5731 5732 5733 5734 5735 5736 5736 5737 5738 5739 5740 5741 5743 5744 5746 5747 5748 5750 5751 5753 5754 5755 5756 5757 5758 5758 5760 5760 5761 5762